THY8412 UUEE-LTFM

Flight info

Callsign THY8412
Flight time N/A
Altitude 36000
Route LIDRI3H LIDRI T781 REPNU N858 VEPIS Y219 LAPKI N869 OSMUS Z369 BRT L856 TOSPO/N0481F360 L856 LODBO M857 PODAN DCT KEKED DCT BADOR DCT RONBU DCT BUVAK DCT RIXEN
Aircraft B77W/H-SDE1E2E3FGHIJ2J3J4J5M1RWXY/LB1D1

Departure

Time N/A
Airport Sheremetyevo International Airport (UUEE)

Arrival

Time 2026-05-04 04:59
Airport İstanbul Airport (LTFM)
Time Latitude Longitude Altitude Speed Heading
2026-05-04 04:30 42.28686 28.47206 27406 ft 432 kts 129°
2026-05-04 04:30 42.26636 28.50165 26852 ft 432 kts 129°
2026-05-04 04:31 42.24591 28.53113 26324 ft 430 kts 129°
2026-05-04 04:31 42.22535 28.56076 25775 ft 429 kts 129°
2026-05-04 04:31 42.20506 28.58995 25245 ft 427 kts 129°
2026-05-04 04:31 42.18469 28.61923 24703 ft 426 kts 129°
2026-05-04 04:32 42.16447 28.64826 24141 ft 425 kts 129°
2026-05-04 04:32 42.14415 28.67743 23588 ft 424 kts 129°
2026-05-04 04:32 42.12396 28.70592 23205 ft 417 kts 133°
2026-05-04 04:32 42.10184 28.72963 23127 ft 406 kts 143°
2026-05-04 04:33 42.07697 28.74736 23007 ft 398 kts 154°
2026-05-04 04:33 42.05100 28.75818 22782 ft 396 kts 165°
2026-05-04 04:33 42.02309 28.76319 22469 ft 404 kts 171°
2026-05-04 04:33 41.99468 28.76603 22158 ft 405 kts 173°
2026-05-04 04:34 41.96644 28.76822 21864 ft 403 kts 173°
2026-05-04 04:34 41.93828 28.77009 21583 ft 401 kts 174°
2026-05-04 04:34 41.91007 28.77174 21303 ft 402 kts 174°
2026-05-04 04:34 41.88190 28.77321 21008 ft 401 kts 174°
2026-05-04 04:35 41.85388 28.77456 20717 ft 399 kts 174°
2026-05-04 04:35 41.82572 28.77487 20417 ft 401 kts 181°
2026-05-04 04:35 41.79769 28.76881 20120 ft 405 kts 193°
2026-05-04 04:35 41.77118 28.75587 19829 ft 406 kts 204°
2026-05-04 04:36 41.74681 28.73664 19545 ft 405 kts 216°
2026-05-04 04:36 41.72555 28.71190 19257 ft 403 kts 227°
2026-05-04 04:36 41.70805 28.68290 18979 ft 400 kts 236°
2026-05-04 04:36 41.69203 28.65238 18692 ft 398 kts 237°
2026-05-04 04:37 41.64370 28.56171 17855 ft 392 kts 236°
2026-05-04 04:37 41.62759 28.53193 17575 ft 390 kts 236°
2026-05-04 04:38 41.61156 28.50244 17290 ft 389 kts 236°
2026-05-04 04:38 41.59541 28.47282 17022 ft 388 kts 236°
2026-05-04 04:38 41.57955 28.44383 16748 ft 384 kts 236°
2026-05-04 04:38 41.56350 28.41454 16467 ft 383 kts 236°
2026-05-04 04:39 41.54776 28.38589 16200 ft 380 kts 236°
2026-05-04 04:39 41.53211 28.35750 15918 ft 378 kts 236°
2026-05-04 04:39 41.51603 28.32905 15477 ft 379 kts 235°
2026-05-04 04:39 41.50006 28.30096 15028 ft 376 kts 235°
2026-05-04 04:40 41.48425 28.27315 14616 ft 372 kts 236°
2026-05-04 04:40 41.46864 28.24571 14205 ft 368 kts 236°
2026-05-04 04:40 41.45339 28.21891 13805 ft 364 kts 236°
2026-05-04 04:40 41.43807 28.19199 13413 ft 361 kts 236°
2026-05-04 04:41 41.42296 28.16547 13013 ft 359 kts 236°
2026-05-04 04:41 41.40738 28.13949 12616 ft 358 kts 228°
2026-05-04 04:41 41.38802 28.11893 12224 ft 360 kts 211°
2026-05-04 04:41 41.36492 28.10592 11812 ft 358 kts 194°
2026-05-04 04:42 41.34037 28.10156 11422 ft 353 kts 180°
2026-05-04 04:42 41.31531 28.10126 11017 ft 349 kts 178°
2026-05-04 04:42 41.29099 28.10151 10624 ft 346 kts 178°
2026-05-04 04:42 41.26671 28.10190 10223 ft 343 kts 176°
2026-05-04 04:43 41.24270 28.10708 9972 ft 331 kts 161°
2026-05-04 04:43 41.22030 28.11641 9647 ft 326 kts 158°
2026-05-04 04:43 41.19848 28.12627 9340 ft 321 kts 158°
2026-05-04 04:43 41.17686 28.13609 9062 ft 315 kts 158°
2026-05-04 04:44 41.15564 28.14572 8791 ft 310 kts 158°
2026-05-04 04:44 41.13446 28.15530 8528 ft 305 kts 158°
2026-05-04 04:44 41.11403 28.16453 8271 ft 300 kts 158°
2026-05-04 04:44 41.09388 28.17362 8008 ft 296 kts 158°
2026-05-04 04:45 41.07386 28.18265 7756 ft 291 kts 157°
2026-05-04 04:45 41.05436 28.19144 7513 ft 287 kts 157°
2026-05-04 04:45 41.03544 28.19996 7272 ft 283 kts 157°
2026-05-04 04:47 40.96624 28.28867 5924 ft 234 kts 80°
2026-05-04 04:47 40.96780 28.31019 5730 ft 232 kts 77°
2026-05-04 04:47 40.96989 28.33144 5527 ft 229 kts 76°
2026-05-04 04:47 40.97209 28.35250 5334 ft 225 kts 76°
2026-05-04 04:48 40.97422 28.37289 5139 ft 220 kts 75°
2026-05-04 04:49 40.98277 28.45285 4292 ft 216 kts 75°
2026-05-04 04:49 40.98499 28.47292 4076 ft 216 kts 75°
2026-05-04 04:49 40.98718 28.49251 3868 ft 215 kts 75°
2026-05-04 04:49 40.98942 28.51228 3649 ft 214 kts 74°
2026-05-04 04:50 40.99165 28.53171 3435 ft 214 kts 74°
2026-05-04 04:50 40.99390 28.55107 3229 ft 214 kts 74°
2026-05-04 04:50 40.99625 28.57058 3020 ft 214 kts 70°
2026-05-04 04:50 41.00166 28.58851 2787 ft 208 kts 59°
2026-05-04 04:51 41.00713 28.60606 2582 ft 208 kts 61°
2026-05-04 04:51 41.01256 28.62396 2381 ft 207 kts 59°
2026-05-04 04:51 41.01866 28.64111 2178 ft 207 kts 56°
2026-05-04 04:51 41.02549 28.65808 1997 ft 207 kts 55°
2026-05-04 04:52 41.03228 28.67478 1888 ft 204 kts 55°
2026-05-04 04:52 41.03917 28.69155 1903 ft 205 kts 52°
2026-05-04 04:52 41.04692 28.70736 1910 ft 205 kts 49°
2026-05-04 04:52 41.05494 28.72275 1909 ft 201 kts 49°
2026-05-04 04:53 41.06270 28.73765 1889 ft 189 kts 49°
2026-05-04 04:53 41.07095 28.75081 1878 ft 186 kts 36°
2026-05-04 04:53 41.08210 28.75813 1866 ft 179 kts
2026-05-04 04:53 41.09437 28.75967 1869 ft 176 kts
2026-05-04 04:54 41.10651 28.75967 1864 ft 171 kts 360°
2026-05-04 04:54 41.11800 28.75943 1864 ft 159 kts
2026-05-04 04:54 41.12855 28.75923 1849 ft 144 kts
2026-05-04 04:54 41.13785 28.75906 1824 ft 120 kts 360°
2026-05-04 04:55 41.14581 28.75890 1850 ft 114 kts
2026-05-04 04:55 41.15372 28.75876 1859 ft 113 kts
2026-05-04 04:55 41.16154 28.75861 1834 ft 112 kts 360°
2026-05-04 04:55 41.16939 28.75847 1806 ft 113 kts 360°
2026-05-04 04:56 41.17719 28.75831 1826 ft 111 kts
2026-05-04 04:56 41.18492 28.75818 1856 ft 112 kts
2026-05-04 04:56 41.19280 28.75802 1723 ft 110 kts
2026-05-04 04:56 41.20058 28.75788 1586 ft 112 kts
2026-05-04 04:57 41.20851 28.75773 1442 ft 113 kts 360°
2026-05-04 04:57 41.21640 28.75758 1290 ft 114 kts 360°
2026-05-04 04:57 41.22446 28.75745 1097 ft 115 kts 359°
2026-05-04 04:57 41.23244 28.75716 916 ft 116 kts 358°
2026-05-04 04:58 41.24066 28.75683 760 ft 116 kts 359°
2026-05-04 04:58 41.24884 28.75683 667 ft 119 kts 359°
2026-05-04 04:58 41.25704 28.75665 509 ft 118 kts
2026-05-04 04:58 41.26533 28.75656 356 ft 118 kts 359°
2026-05-04 04:59 41.27265 28.75644 341 ft 85 kts 359°
2026-05-04 04:59 41.27706 28.75631 341 ft 40 kts 360°
2026-05-04 04:59 41.27884 28.75628 341 ft 21 kts 354°
2026-05-04 04:59 41.28017 28.75578 341 ft 18 kts 332°
2026-05-04 05:00 41.28124 28.75478 341 ft 19 kts 315°
2026-05-04 05:00 41.28050 28.75380 341 ft 22 kts 172°
2026-05-04 05:00 41.27739 28.75390 341 ft 22 kts 179°
2026-05-04 05:01 41.27587 28.75394 341 ft 21 kts 179°
2026-05-04 05:01 41.27436 28.75397 341 ft 21 kts 180°
2026-05-04 05:01 41.27287 28.75398 341 ft 21 kts 180°
2026-05-04 05:01 41.27143 28.75399 341 ft 20 kts 180°
2026-05-04 05:02 41.26998 28.75400 341 ft 20 kts 179°
2026-05-04 05:02 41.26888 28.75344 341 ft 17 kts 261°
2026-05-04 05:02 41.26872 28.75200 341 ft 13 kts 222°
2026-05-04 05:02 41.26778 28.75181 341 ft 14 kts 179°
2026-05-04 05:03 41.26732 28.75137 341 ft 8 kts 271°
2026-05-04 05:03 41.26736 28.75064 341 ft 6 kts 271°
2026-05-04 05:04 41.26736 28.75045 341 ft 0 kts 269°